Simultaneous Nadir Overpasses (SNOs) Predictions

Prediction of SNOs between NOAA-19 and TERRA Satellite Orbit:

Table of predicted SNOs for the next 14.0 days since TLE Epoch: 1/8/2022
Index Date (NOAA-19) Time (NOAA-19) Lat,Lon (NOAA-19) SZA (NOAA-19 ) Date (TERRA) Time (TERRA) Lat,Lon (TERRA) SZA (TERRA ) Distance(km) Time Diff (sec)
1 01/10/2022 08:56:43 -80.60, -98.76 76.03 01/10/2022 08:56:39 -80.61, -98.72 76.02 1.61 4
2 01/12/2022 14:29:47 80.61, -2.22 103.59 01/12/2022 14:30:19 80.59, -2.32 103.58 2.35 32
3 01/12/2022 15:20:46 -80.60, 165.30 76.40 01/12/2022 15:19:46 -80.59, 165.30 76.43 0.69 60
4 01/14/2022 20:02:50 -80.61, 94.45 76.81 01/14/2022 20:03:59 -80.60, 94.34 76.81 2.34 69
5 01/14/2022 20:53:50 80.60, -97.98 103.20 01/14/2022 20:53:25 80.60, -98.03 103.19 0.81 25
6 01/17/2022 02:26:53 -80.61, -1.52 77.25 01/17/2022 02:27:05 -80.61, -1.37 77.24 2.73 12
7 01/19/2022 07:59:58 80.62, 95.19 102.29 01/19/2022 08:00:44 80.61, 95.22 102.30 1.09 46
8 01/19/2022 08:50:55 -80.60, -97.15 77.71 01/19/2022 08:50:11 -80.61, -97.12 77.71 1.19 44



Historial Predications of SNOs between NOAA-19 and TERRA
